User: anonymous   Login
Location: Niagara
(43.2500°N, 79.0670°W)
Time: 06:01:02
(UTC-05:00)
Language:

Tiangong 1 - Orbit

View from above orbital plane
View from above orbital plane
View from above satellite
View from above satellite

Ground track
Ground track

The orbit data is extracted from the following two-line orbital elements,

1 37820U 11053A   17352.18226852  .00060439  96904-5  15004-3 0  9990
2 37820  42.7528 141.9358 0019897 317.9631  32.8845 15.95331687357176
Epoch (UTC): 18 December 2017 04:22:28
Eccentricity: 0.0019897
inclination: 42.7528°
perigee height: 274 km
apogee height: 300 km
right ascension of ascending node: 141.9358°
argument of perigee: 317.9631°
revolutions per day: 15.95331687
mean anomaly at epoch: 32.8845°
orbit number at epoch: 35717

The dashed part of the orbit path shows where the satellite is in the earth's shadow,  

DLR